[[{"header":{"parameterUnit":"m.s-1","parameterCategory":1,"la1":30.2991,"la2":30.254,"lo1":-89.0895,"lo2":-89.0444,"dy":0.0017,"dx":0.0017,"nx":28,"ny":28,"refTime":"2024-05-10T09:00:00:Z","depth":0,"parameterNumber":2,"parameterNumberName":"U-component_of_WINDS"},"data":[0,0,0,0,0,0,0,0,0,0,0,0,0,0,0,0,0,0,0,0,0,0,0,0,0,0,0,0,0,0,0,0,0,0,0,0,0,0,0,0,0,0,0,0,0,0,0,0,0,0,0,0,0,0,0,0,0,0,-1.2312,-1.2312,0,-1.2309,-1.2309,-1.2309,-1.2288,-1.2288,-1.2287,-1.2287,-1.2283,-1.2284,-1.2284,0,0,0,0,0,0,0,0,0,0,0,0,0,-1.23,-1.23,-1.2312,-1.2312,-1.2312,-1.2309,-1.2309,-1.2309,-1.2288,-1.2288,-1.2287,-1.2287,-1.2283,-1.2284,-1.2284,0,0,0,0,0,0,0,0,0,0,0,0,0,-1.2302,-1.23,-1.2312,-1.2302,-1.2301,-1.2309,-1.2309,-1.2309,-1.2289,-1.2288,-1.2287,-1.2286,-1.2283,-1.2284,-1.2284,-1.2303,0,0,-1.2286,-1.2286,0,0,0,0,0,0,0,0,-1.2302,-1.2302,-1.2303,-1.2302,-1.2301,-1.2298,-1.2303,-1.2307,-1.2289,-1.2293,-1.2287,-1.2286,-1.2289,-1.2289,-1.229,-1.2302,-1.2302,-1.2286,-1.2286,-1.2287,-1.2287,0,0,0,0,0,0,0,-1.2302,-1.2302,-1.2311,-1.2303,-1.2302,-1.2297,-1.2296,-1.2304,-1.2295,-1.2293,-1.2291,-1.2291,-1.2288,-1.229,-1.229,-1.2302,-1.2286,-1.2286,-1.2287,-1.2287,-1.2329,-1.2329,0,0,0,0,0,0,-1.2303,-1.2302,-1.2311,-1.2311,-1.23,-1.2297,-1.2297,-1.23,-1.2295,-1.2294,-1.2292,-1.229,-1.2289,-1.2289,-1.229,-1.2311,-1.2287,-1.2287,-1.2287,-1.2328,-1.2329,-1.233,0,0,0,0,0,0,-1.2303,-1.2304,-1.2311,-1.2306,-1.2307,-1.2298,-1.2302,-1.23,-1.2302,-1.2294,-1.2293,-1.2295,-1.2288,-1.2289,-1.2299,-1.231,-1.2287,-1.2288,-1.2327,-1.2328,-1.2329,-1.2353,0,0,0,0,0,0,-1.2303,-1.2304,-1.2311,-1.2306,-1.2307,-1.2321,-1.2303,-1.2301,-1.2303,-1.23,-1.2297,-1.2295,-1.2288,-1.2299,-1.23,-1.231,-1.2288,-1.2326,-1.2328,-1.2329,-1.2351,-1.2355,-1.2358,0,0,0,0,0,-1.2302,-1.2318,-1.2312,-1.2313,-1.2316,-1.2322,-1.2322,-1.2313,-1.2303,-1.231,-1.2306,-1.2295,-1.2309,-1.23,-1.2301,-1.2312,-1.2325,-1.2327,-1.2329,-1.2349,-1.2354,-1.2358,0,0,0,0,0,0,-1.2325,-1.2317,-1.231,-1.2325,-1.2324,-1.2319,-1.2327,-1.2318,-1.232,-1.2318,-1.2307,-1.2306,-1.2318,-1.2316,-1.2307,-1.2329,-1.2315,-1.2317,-1.233,-1.2334,-1.2338,-1.2338,-1.2289,0,0,0,0,0,-1.2331,-1.2337,-1.233,-1.2344,-1.2344,-1.2336,-1.2338,-1.2331,-1.233,-1.2329,-1.2325,-1.2324,-1.2328,-1.2331,-1.2334,-1.235,-1.2349,-1.2358,-1.2361,-1.2364,-1.2366,-1.2374,-1.2378,-1.2335,-1.2335,-1.2335,0,0,-1.2345,-1.2342,-1.2346,-1.2348,-1.2347,-1.2353,-1.2336,-1.2343,-1.2347,-1.233,-1.234,-1.2337,-1.2335,-1.2348,-1.2354,-1.2347,-1.2378,-1.2366,-1.2369,-1.2369,-1.2376,-1.2381,-1.2384,-1.2337,-1.2336,-1.2336,0,0,-1.2374,-1.2372,-1.2383,-1.2382,-1.238,-1.2374,-1.2376,-1.2372,-1.2369,-1.2378,-1.2366,-1.2371,-1.2378,-1.2377,-1.2377,-1.2404,-1.2394,-1.2405,-1.2423,-1.2431,-1.2434,-1.2437,-1.2447,-1.245,-1.2407,-1.2407,-1.2407,0,-1.2392,-1.2401,-1.239,-1.2398,-1.2399,-1.2384,-1.2395,-1.2394,-1.2393,-1.2394,-1.2385,-1.2393,-1.2391,-1.2404,-1.241,-1.2411,-1.2413,-1.2406,-1.2434,-1.2437,-1.244,-1.2449,-1.2453,-1.2408,-1.2408,-1.2408,-1.2408,0,-1.2422,-1.2428,-1.2438,-1.2437,-1.2439,-1.2448,-1.2439,-1.2442,-1.2434,-1.2429,-1.2439,-1.2435,-1.2437,-1.2439,-1.2432,-1.2451,-1.2446,-1.2436,-1.2422,-1.2445,-1.2454,-1.2457,-1.241,-1.241,-1.241,-1.2409,0,0,-1.2467,-1.2459,-1.2463,-1.2462,-1.2458,-1.2462,-1.247,-1.2472,-1.2475,-1.2474,-1.2481,-1.2486,-1.2477,-1.2477,-1.247,-1.2477,-1.2498,-1.2466,-1.2465,-1.2472,-1.2518,-1.2526,-1.253,-1.2491,-1.2492,-1.2492,-1.2518,0,-1.2494,-1.2509,-1.2499,-1.2514,-1.252,-1.2504,-1.2511,-1.2509,-1.2504,-1.2508,-1.2502,-1.2506,-1.2494,-1.2494,-1.25,-1.2494,-1.2507,-1.2492,-1.2497,-1.2498,-1.2499,-1.2535,-1.2543,-1.2568,-1.2521,-1.2522,-1.2522,0,-1.2529,-1.253,-1.2546,-1.254,-1.2542,-1.2549,-1.2549,-1.2552,-1.2549,-1.2545,-1.2545,-1.2535,-1.2543,-1.2528,-1.2538,-1.2528,-1.2529,-1.2526,-1.2527,-1.2528,-1.2512,-1.2537,-1.2576,-1.258,-1.2527,-1.2527,-1.2527,0,-1.256,-1.2565,-1.2575,-1.2575,-1.2568,-1.2573,-1.257,-1.2567,-1.2568,-1.2568,-1.2569,-1.257,-1.257,-1.2571,-1.2562,-1.2552,-1.2573,-1.2557,-1.2569,-1.257,-1.2575,-1.2575,-1.2616,-1.2575,-1.2575,-1.2575,-1.2575,0,-1.2593,-1.2604,-1.2589,-1.2596,-1.2607,-1.2594,-1.2606,-1.2601,-1.2598,-1.2603,-1.2589,-1.2594,-1.2581,-1.2584,-1.2577,-1.2586,-1.2586,-1.2583,-1.2581,-1.2585,-1.2585,-1.2586,-1.2585,-1.2576,-1.2576,-1.2576,-1.2575,0,-1.2631,-1.2621,-1.2631,-1.2623,-1.2622,-1.263,-1.2623,-1.2629,-1.2622,-1.2629,-1.2629,-1.2619,-1.2622,-1.2613,-1.2614,-1.2609,-1.2623,-1.2618,-1.2624,-1.2623,-1.2636,-1.2635,-1.2679,-1.2684,-1.2639,-1.264,-1.264,0,-1.2653,-1.266,-1.2653,-1.2655,-1.2653,-1.2657,-1.2658,-1.2646,-1.2648,-1.2644,-1.265,-1.2652,-1.2653,-1.2658,-1.2651,-1.2652,-1.2647,-1.2663,-1.2648,-1.2651,-1.2648,-1.2648,-1.2649,-1.2666,-1.2667,-1.2667,-1.2667,0,-1.2693,-1.2687,-1.269,-1.269,-1.2691,-1.2691,-1.269,-1.2692,-1.2679,-1.2681,-1.2684,-1.2685,-1.2686,-1.2688,-1.2687,-1.2684,-1.2674,-1.2672,-1.2675,-1.2679,-1.2683,-1.2682,-1.2633,-1.2671,-1.2671,-1.2671,-1.2671,-1.267,-1.2724,-1.273,-1.2725,-1.2728,-1.2725,-1.2724,-1.2728,-1.2722,-1.2724,-1.2724,-1.2716,-1.2721,-1.2717,-1.2714,-1.2712,-1.2715,-1.2708,-1.2712,-1.2714,-1.2715,-1.2718,-1.2682,-1.2715,-1.2715,-1.2715,-1.2715,-1.2714,0,-1.2764,-1.276,-1.2762,-1.276,-1.2762,-1.2751,-1.2749,-1.2751,-1.2755,-1.2752,-1.2753,-1.2756,-1.2757,-1.2749,-1.275,-1.2754,-1.2749,-1.2754,-1.2754,-1.2754,-1.2724,-1.2721,-1.2758,-1.2758,-1.2758,-1.2758,-1.2758,-1.2758,-1.2785,-1.2794,-1.2788,-1.2796,-1.2791,-1.2796,-1.2795,-1.2794,-1.2791,-1.2795,-1.2796,-1.2791,-1.2785,-1.2785,-1.2786,-1.2783,-1.2784,-1.2792,-1.2788,-1.276,-1.2756,-1.2752,-1.275,-1.2792,-1.2792,-1.2818,-1.2818,-1.2818]},{"header":{"parameterUnit":"m.s-1","parameterCategory":1,"la1":30.2991,"la2":30.254,"lo1":-89.0895,"lo2":-89.0444,"dy":0.0017,"dx":0.0017,"nx":28,"ny":28,"refTime":"2024-05-10T09:00:00:Z","depth":0,"parameterNumber":3,"parameterNumberName":"V-component_of_WINDS"},"data":[0,0,0,0,0,0,0,0,0,0,0,0,0,0,0,0,0,0,0,0,0,0,0,0,0,0,0,0,0,0,0,0,0,0,0,0,0,0,0,0,0,0,0,0,0,0,0,0,0,0,0,0,0,0,0,0,0,0,-0.284,-0.2842,0,-0.3045,-0.3048,-0.305,-0.3179,-0.318,-0.3181,-0.3181,-0.3395,-0.34,-0.3405,0,0,0,0,0,0,0,0,0,0,0,0,0,-0.2561,-0.2566,-0.284,-0.2842,-0.2845,-0.3045,-0.3048,-0.3051,-0.3179,-0.318,-0.3181,-0.3182,-0.3393,-0.3399,-0.3405,0,0,0,0,0,0,0,0,0,0,0,0,0,-0.2716,-0.2567,-0.2839,-0.2933,-0.2943,-0.3044,-0.3048,-0.3051,-0.3179,-0.318,-0.3181,-0.3182,-0.3391,-0.3399,-0.3406,-0.3431,0,0,-0.3429,-0.3432,0,0,0,0,0,0,0,0,-0.2707,-0.2726,-0.2917,-0.2927,-0.2939,-0.3088,-0.3028,-0.3179,-0.3179,-0.309,-0.3181,-0.3183,-0.3292,-0.3308,-0.3344,-0.3441,-0.345,-0.343,-0.3434,-0.3438,-0.344,0,0,0,0,0,0,0,-0.2696,-0.2718,-0.2921,-0.2919,-0.2933,-0.2966,-0.2989,-0.3057,-0.3182,-0.3097,-0.3107,-0.313,-0.3298,-0.3337,-0.335,-0.3453,-0.343,-0.3436,-0.3441,-0.3444,-0.3582,-0.3581,0,0,0,0,0,0,-0.267,-0.2708,-0.2915,-0.2927,-0.2823,-0.297,-0.2996,-0.3039,-0.3182,-0.3205,-0.3128,-0.3135,-0.3323,-0.3341,-0.3358,-0.3397,-0.3438,-0.3445,-0.3449,-0.3583,-0.3582,-0.3581,0,0,0,0,0,0,-0.2664,-0.2687,-0.2906,-0.2821,-0.2851,-0.2973,-0.3021,-0.3042,-0.3081,-0.3205,-0.3229,-0.3144,-0.3325,-0.3348,-0.3412,-0.3407,-0.3448,-0.3455,-0.3584,-0.3582,-0.3581,-0.3475,0,0,0,0,0,0,-0.2655,-0.2684,-0.2694,-0.282,-0.2855,-0.2955,-0.302,-0.3045,-0.3093,-0.3103,-0.3227,-0.3248,-0.3327,-0.34,-0.3419,-0.3418,-0.3461,-0.3585,-0.3583,-0.3581,-0.348,-0.347,-0.3462,0,0,0,0,0,-0.2645,-0.2657,-0.2694,-0.2718,-0.287,-0.2955,-0.2975,-0.3065,-0.3092,-0.3104,-0.3184,-0.3244,-0.3403,-0.3405,-0.3428,-0.3429,-0.3585,-0.3583,-0.3582,-0.3483,-0.3472,-0.3463,0,0,0,0,0,0,-0.2529,-0.2675,-0.2718,-0.2771,-0.2849,-0.2976,-0.2994,-0.305,-0.3124,-0.313,-0.324,-0.3267,-0.332,-0.3381,-0.3381,-0.3461,-0.3502,-0.3504,-0.3419,-0.3409,-0.3401,-0.3386,-0.3467,0,0,0,0,0,-0.2509,-0.2565,-0.269,-0.2725,-0.2762,-0.287,-0.2911,-0.2973,-0.3059,-0.3094,-0.3179,-0.3261,-0.333,-0.3373,-0.3443,-0.3489,-0.3518,-0.35,-0.3492,-0.3484,-0.3485,-0.3515,-0.3509,-0.3574,-0.3574,-0.3574,0,0,-0.247,-0.2556,-0.2585,-0.2704,-0.2772,-0.2828,-0.2898,-0.2954,-0.2997,-0.3103,-0.3169,-0.3233,-0.3333,-0.3387,-0.3416,-0.344,-0.3473,-0.3481,-0.3474,-0.348,-0.3512,-0.3506,-0.35,-0.3573,-0.3573,-0.3573,0,0,-0.2427,-0.2497,-0.2534,-0.2601,-0.2702,-0.2775,-0.2783,-0.2902,-0.2949,-0.3016,-0.3096,-0.3149,-0.3265,-0.3333,-0.3382,-0.3363,-0.3422,-0.3383,-0.3339,-0.3366,-0.3361,-0.3357,-0.3351,-0.3347,-0.3384,-0.3384,-0.3384,0,-0.2365,-0.2452,-0.2546,-0.2598,-0.2648,-0.2744,-0.2783,-0.2843,-0.2963,-0.2996,-0.302,-0.3168,-0.3241,-0.3314,-0.3309,-0.3345,-0.3359,-0.337,-0.3354,-0.3351,-0.3348,-0.3344,-0.3341,-0.3378,-0.3379,-0.338,-0.338,0,-0.2372,-0.2431,-0.2449,-0.256,-0.2612,-0.2657,-0.2759,-0.28,-0.2858,-0.2927,-0.2995,-0.3086,-0.3177,-0.3198,-0.3256,-0.3279,-0.3291,-0.3333,-0.3376,-0.3335,-0.3333,-0.3332,-0.3371,-0.3373,-0.3374,-0.3376,0,0,-0.2263,-0.2425,-0.2431,-0.2483,-0.2601,-0.2649,-0.2699,-0.2786,-0.282,-0.2899,-0.2943,-0.3039,-0.3078,-0.3134,-0.32,-0.3224,-0.3204,-0.3264,-0.3268,-0.325,-0.3236,-0.3204,-0.3201,-0.3243,-0.3243,-0.3243,-0.3228,0,-0.2239,-0.2331,-0.2417,-0.2479,-0.2535,-0.2627,-0.267,-0.2748,-0.2814,-0.2872,-0.2946,-0.3012,-0.3059,-0.3093,-0.312,-0.32,-0.3203,-0.3202,-0.3287,-0.3289,-0.326,-0.32,-0.3166,-0.3148,-0.3228,-0.3228,-0.3228,0,-0.2223,-0.2297,-0.2363,-0.2477,-0.2504,-0.254,-0.2627,-0.2681,-0.2772,-0.2818,-0.2879,-0.2948,-0.3006,-0.3042,-0.3123,-0.3121,-0.316,-0.3204,-0.3206,-0.3219,-0.3256,-0.3211,-0.3144,-0.3142,-0.3227,-0.3227,-0.3227,0,-0.2138,-0.2254,-0.2309,-0.2351,-0.2484,-0.2508,-0.2564,-0.2656,-0.2703,-0.2779,-0.2811,-0.2892,-0.2937,-0.3,-0.3089,-0.3107,-0.3161,-0.3204,-0.3203,-0.32,-0.3211,-0.3209,-0.315,-0.3234,-0.3234,-0.3234,-0.3234,0,-0.2103,-0.214,-0.2273,-0.2307,-0.2352,-0.245,-0.2492,-0.2557,-0.2637,-0.2686,-0.2771,-0.2815,-0.293,-0.2988,-0.3058,-0.3115,-0.3135,-0.3175,-0.3194,-0.3168,-0.3163,-0.3197,-0.3201,-0.3234,-0.3234,-0.3234,-0.3234,0,-0.2016,-0.2106,-0.2172,-0.2292,-0.2323,-0.2351,-0.2455,-0.2492,-0.2562,-0.2623,-0.2643,-0.2753,-0.2826,-0.2921,-0.3024,-0.3072,-0.3121,-0.3149,-0.309,-0.3101,-0.3094,-0.3093,-0.3055,-0.3056,-0.3137,-0.3136,-0.3135,0,-0.1988,-0.2019,-0.2141,-0.218,-0.2233,-0.2294,-0.2342,-0.2439,-0.2486,-0.2591,-0.2615,-0.2694,-0.2763,-0.2875,-0.2966,-0.3045,-0.3077,-0.3058,-0.3089,-0.3063,-0.3078,-0.3075,-0.3079,-0.305,-0.3049,-0.3048,-0.3047,0,-0.1929,-0.1972,-0.2037,-0.2117,-0.2171,-0.224,-0.2312,-0.2339,-0.2452,-0.25,-0.2575,-0.2628,-0.2732,-0.281,-0.2901,-0.2962,-0.3023,-0.3036,-0.304,-0.3015,-0.298,-0.2999,-0.3069,-0.3037,-0.3038,-0.3038,-0.3039,-0.3039,-0.1872,-0.1904,-0.1995,-0.2064,-0.2129,-0.2194,-0.2234,-0.2309,-0.2373,-0.2465,-0.2518,-0.2591,-0.2682,-0.281,-0.2867,-0.2926,-0.295,-0.2956,-0.2957,-0.2957,-0.2949,-0.2968,-0.2943,-0.2944,-0.2944,-0.2945,-0.2945,0,-0.1819,-0.1881,-0.1944,-0.2042,-0.2096,-0.2147,-0.223,-0.2273,-0.2336,-0.2414,-0.2479,-0.2565,-0.2641,-0.2736,-0.2819,-0.2848,-0.2878,-0.2866,-0.2866,-0.2879,-0.2923,-0.2912,-0.284,-0.284,-0.284,-0.284,-0.284,-0.284,-0.1797,-0.1853,-0.1907,-0.1996,-0.2059,-0.213,-0.2173,-0.2234,-0.2296,-0.2388,-0.2451,-0.2512,-0.2598,-0.2687,-0.2759,-0.2785,-0.2812,-0.2792,-0.2827,-0.2867,-0.2876,-0.2885,-0.2875,-0.2797,-0.2796,-0.2778,-0.2778,-0.2778]}]]